CW8386 Weather Reports


Display with metric or nautical units.
time (UTC)temp
F
wind
direction
speed
MPH
gust
MPH
rain 1hr
in
rain 24hr
in
rain mn
in
humidity
%
barometer
mb
20260904213612 90 360 3.0 16.0 0.00 0.00 0.00 19 1011.1
20260904213052 90 360 2.0 13.0 0.00 0.00 0.00 18 1011.0
20260904212613 90 360 4.0 13.0 0.00 0.00 0.00 18 1011.1
20260904211532 90 360 5.0 17.0 0.00 0.00 0.00 19 1011.3
20260904211034 89 360 9.0 29.0 0.00 0.00 0.00 18 1011.1
20260904210615 89 360 15.0 29.0 0.00 0.00 0.00 18 1011.3
20260904210054 89 360 2.0 19.0 0.00 0.00 0.00 18 1011.3
20260904205555 89 360 9.0 14.0 0.00 0.00 0.00 18 1011.4
20260904205055 89 360 5.0 20.0 0.00 0.00 0.00 19 1011.3
20260904204556 89 360 7.0 22.0 0.00 0.00 0.00 19 1011.3
20260904204058 89 360 13.0 25.0 0.00 0.00 0.00 18 1011.2
20260904203537 89 360 5.0 28.0 0.00 0.00 0.00 18 1011.4
20260904203037 88 360 17.0 28.0 0.00 0.00 0.00 18 1011.4
20260904202542 88 360 7.0 22.0 0.00 0.00 0.00 18 1011.5
20260904202043 88 360 11.0 22.0 0.00 0.00 0.00 18 1011.6
20260904201544 87 360 7.0 21.0 0.00 0.00 0.00 18 1011.7
20260904201127 87 360 6.0 21.0 0.00 0.00 0.00 19 1011.8
20260904200545 87 360 12.0 33.0 0.00 0.00 0.00 18 1011.8
20260904200045 87 360 21.0 33.0 0.00 0.00 0.00 18 1011.8
20260904195525 87 360 12.0 19.0 0.00 0.00 0.00 18 1011.8
20260904195108 87 360 13.0 19.0 0.00 0.00 0.00 18 1012.0
20260904194547 87 360 3.0 16.0 0.00 0.00 0.00 18 1012.0
20260904194028 87 360 1.0 14.0 0.00 0.00 0.00 19 1012.0
20260904193548 87 360 5.0 16.0 0.00 0.00 0.00 18 1012.2
20260904193028 86 360 1.0 16.0 0.00 0.00 0.00 18 1012.2
20260904192609 87 360 5.0 21.0 0.00 0.00 0.00 18 1012.2
20260904192030 86 360 4.0 24.0 0.00 0.00 0.00 19 1012.2
20260904191530 86 360 12.0 24.0 0.00 0.00 0.00 18 1012.3
20260904191113 86 360 4.0 18.0 0.00 0.00 0.00 18 1012.4
20260904190612 85 360 9.0 16.0 0.00 0.00 0.00 19 1012.3
20260904185531 85 360 6.0 19.0 0.00 0.00 0.00 18 1012.5
20260904185114 85 360 4.0 23.0 0.00 0.00 0.00 18 1012.5
20260904184613 86 360 3.0 27.0 0.00 0.00 0.00 19 1012.6
20260904184033 86 360 9.0 21.0 0.00 0.00 0.00 18 1012.7
20260904183533 86 360 3.0 11.0 0.00 0.00 0.00 19 1012.8
20260904183116 86 360 2.0 15.0 0.00 0.00 0.00 19 1012.8
20260904182054 86 360 0.0 10.0 0.00 0.00 0.00 19 1012.9
20260904181534 85 360 2.0 12.0 0.00 0.00 0.00 20 1012.9
20260904181036 85 360 1.0 12.0 0.00 0.00 0.00 19 1013.0
20260904180536 85 360 5.0 18.0 0.00 0.00 0.00 19 1012.9
20260904180037 85 360 7.0 20.0 0.00 0.00 0.00 19 1013.0
20260904175558 85 360 7.0 20.0 0.00 0.00 0.00 18 1013.0
20260904175059 84 360 8.0 18.0 0.00 0.00 0.00 19 1012.9
20260904174620 85 360 2.0 18.0 0.00 0.00 0.00 20 1013.0
20260904174039 84 360 4.0 17.0 0.00 0.00 0.00 22 1012.9
20260904173541 84 360 5.0 14.0 0.00 0.00 0.00 19 1012.9
20260904173101 84 360 3.0 14.0 0.00 0.00 0.00 23 1012.8
20260904172541 83 360 6.0 14.0 0.00 0.00 0.00 23 1012.8
20260904172103 82 360 6.0 16.0 0.00 0.00 0.00 24 1012.8
20260904171544 82 360 10.0 17.0 0.00 0.00 0.00 24 1012.9
20260904171046 82 360 8.0 17.0 0.00 0.00 0.00 24 1012.9
20260904170526 82 360 6.0 17.0 0.00 0.00 0.00 24 1012.8
20260904170027 82 360 6.0 15.0 0.00 0.00 0.00 24 1012.9
20260904165532 81 360 10.0 16.0 0.00 0.00 0.00 24 1012.9
20260904165053 81 360 7.0 16.0 0.00 0.00 0.00 25 1013.0
20260904164533 81 360 9.0 17.0 0.00 0.00 0.00 24 1012.9
20260904164034 80 360 6.0 20.0 0.00 0.00 0.00 25 1013.0
20260904163536 80 360 9.0 20.0 0.00 0.00 0.00 25 1013.0
20260904163058 80 360 13.0 19.0 0.00 0.00 0.00 25 1012.9
20260904162036 79 360 8.0 16.0 0.00 0.00 0.00 26 1012.9
20260904161537 79 360 5.0 16.0 0.00 0.00 0.00 26 1013.0
20260904161039 79 360 8.0 12.0 0.00 0.00 0.00 26 1013.0
20260904160538 78 360 4.0 18.0 0.00 0.00 0.00 27 1013.1
20260904160101 78 360 7.0 18.0 0.00 0.00 0.00 26 1013.1
20260904155540 78 360 4.0 19.0 0.00 0.00 0.00 26 1013.0
20260904154620 78 360 5.0 14.0 0.00 0.00 0.00 26 1012.8
20260904154040 79 360 2.0 12.0 0.00 0.00 0.00 26 1012.8
20260904153601 78 360 3.0 13.0 0.00 0.00 0.00 26 1012.7
20260904153042 78 360 5.0 16.0 0.00 0.00 0.00 26 1012.7
20260904152603 78 360 5.0 16.0 0.00 0.00 0.00 26 1012.7
20260904152044 77 360 6.0 17.0 0.00 0.00 0.00 26 1012.7
20260904151605 77 360 6.0 17.0 0.00 0.00 0.00 26 1012.5
20260904151044 77 360 5.0 14.0 0.00 0.00 0.00 27 1012.7
20260904150544 77 360 4.0 14.0 0.00 0.00 0.00 27 1012.7
20260904150046 77 360 7.0 14.0 0.00 0.00 0.00 26 1012.8
20260904145525 77 360 3.0 12.0 0.00 0.00 0.00 27 1012.8
20260904145107 76 360 3.0 13.0 0.00 0.00 0.00 26 1012.8
20260904144607 76 360 1.0 13.0 0.00 0.00 0.00 28 1012.9
20260904144048 76 360 2.0 13.0 0.00 0.00 0.00 27 1012.8
20260904143608 75 360 1.0 6.0 0.00 0.00 0.00 28 1012.8
20260904143028 74 360 0.0 3.0 0.00 0.00 0.00 28 1012.8
20260904142530 73 360 0.0 4.0 0.00 0.00 0.00 30 1012.8
20260904142032 72 360 3.0 4.0 0.00 0.00 0.00 30 1012.8
20260904141614 72 360 0.0 5.0 0.00 0.00 0.00 31 1012.8
20260904141033 71 360 1.0 5.0 0.00 0.00 0.00 31 1012.0
20260904140533 70 360 3.0 6.0 0.00 0.00 0.00 29 1012.0
20260904140034 68 360 2.0 6.0 0.00 0.00 0.00 35 1011.9
20260904135540 67 360 2.0 6.0 0.00 0.00 0.00 35 1012.0
20260904135101 67 360 1.0 5.0 0.00 0.00 0.00 35 1011.8
20260904134618 65 360 2.0 5.0 0.00 0.00 0.00 35 1011.8
20260904134058 64 360 0.0 4.0 0.00 0.00 0.00 37 1011.8
20260904133541 63 360 1.0 3.0 0.00 0.00 0.00 38 1011.8
20260904133119 62 360 0.0 4.0 0.00 0.00 0.00 39 1011.7
20260904132559 61 360 1.0 4.0 0.00 0.00 0.00 40 1011.7
20260904132120 59 360 0.0 0.0 0.00 0.00 0.00 41 1011.6
20260904131600 58 360 0.0 0.0 0.00 0.00 0.00 40 1011.5
20260904131041 58 360 0.0 1.0 0.00 0.00 0.00 41 1011.4
20260904130621 59 360 0.0 5.0 0.00 0.00 0.00 40 1011.5
20260904130040 59 360 0.0 5.0 0.00 0.00 0.00 40 1011.4
20260904125546 59 360 1.0 5.0 0.00 0.00 0.00 39 1011.2
20260904124604 57 360 0.0 1.0 0.00 0.00 0.00 40 1011.1
20260904124106 57 360 0.0 1.0 0.00 0.00 0.00 41 1011.2
20260904123545 57 360 0.0 3.0 0.00 0.00 0.00 40 1011.1
20260904123027 57 360 0.0 3.0 0.00 0.00 0.00 41 1011.1
20260904122528 57 360 0.0 2.0 0.00 0.00 0.00 40 1011.0
20260904122029 57 360 0.0 1.0 0.00 0.00 0.00 41 1011.1
20260904121531 58 360 0.0 0.0 0.00 0.00 0.00 40 1011.1
20260904121054 58 360 0.0 0.0 0.00 0.00 0.00 39 1011.1
20260904120533 58 360 0.0 4.0 0.00 0.00 0.00 38 1011.0
20260904120056 58 360 0.0 7.0 0.00 0.00 0.00 38 1011.0
20260904115056 58 360 0.0 3.0 0.00 0.00 0.00 38 1011.0
20260904114536 58 360 0.0 4.0 0.00 0.00 0.00 39 1010.9
20260904114119 58 360 0.0 4.0 0.00 0.00 0.00 37 1010.9
20260904113557 59 360 0.0 3.0 0.00 0.00 0.00 38 1011.0
20260904113058 59 360 0.0 5.0 0.00 0.00 0.00 38 1011.0
20260904112537 59 360 0.0 6.0 0.00 0.00 0.00 37 1010.9
20260904112059 59 360 4.0 6.0 0.00 0.00 0.00 37 1011.0
20260904111539 59 360 0.0 6.0 0.00 0.00 0.00 36 1011.0
20260904111042 59 360 3.0 6.0 0.00 0.00 0.00 34 1011.0
20260904110543 59 360 2.0 3.0 0.00 0.00 0.00 34 1011.0
20260904110125 59 360 1.0 3.0 0.00 0.00 0.00 34 1011.8
20260904105544 60 360 0.0 3.0 0.00 0.00 0.00 34 1011.7
20260904105126 60 360 2.0 3.0 0.00 0.00 0.00 33 1011.7
20260904104105 61 360 0.0 4.0 0.00 0.00 0.00 33 1011.7
20260904103626 62 360 3.0 6.0 0.00 0.00 0.00 33 1011.6
20260904103125 62 360 0.0 6.0 0.00 0.00 0.00 33 1011.6
20260904102605 61 360 0.0 2.0 0.00 0.00 0.00 35 1011.5
20260904102045 62 360 0.0 0.0 0.00 0.00 0.00 35 1011.5
20260904101546 62 360 0.0 2.0 0.00 0.00 0.00 34 1011.4
20260904101108 62 360 0.0 2.0 0.00 0.00 0.00 35 1011.3
20260904100527 62 360 0.0 3.0 0.00 0.00 0.00 34 1011.4
20260904100028 62 360 1.0 3.0 0.00 0.00 0.00 35 1011.3
20260904095550 63 360 0.0 3.0 0.00 0.00 0.00 34 1011.4
20260904095050 62 360 1.0 3.0 0.00 0.00 0.00 34 1011.4
20260904094550 61 360 2.0 3.0 0.00 0.00 0.00 35 1011.4
20260904093609 62 360 1.0 3.0 0.00 0.00 0.00 36 1011.4
20260904093027 62 360 0.0 2.0 0.00 0.00 0.00 35 1011.5
20260904092549 62 360 0.0 2.0 0.00 0.00 0.00 35 1011.5
20260904092030 62 360 0.0 1.0 0.00 0.00 0.00 34 1011.4
20260904091552 62 360 0.0 4.0 0.00 0.00 0.00 33 1011.4
20260904091033 62 360 1.0 4.0 0.00 0.00 0.00 32 1011.4
20260904090111 61 360 0.0 6.0 0.00 0.00 0.00 33 1011.3
20260904085530 62 360 0.0 0.0 0.00 0.00 0.00 34 1011.3
20260904085052 62 360 0.0 0.0 0.00 0.00 0.00 34 1011.3
20260904084533 62 360 0.0 0.0 0.00 0.00 0.00 34 1011.3
20260904084055 63 360 0.0 2.0 0.00 0.00 0.00 33 1011.3
20260904083555 64 360 0.0 3.0 0.00 0.00 0.00 33 1011.2
20260904083116 65 360 2.0 3.0 0.00 0.00 0.00 33 1011.3
20260904082555 66 360 1.0 4.0 0.00 0.00 0.00 31 1011.3
20260904082116 67 360 1.0 4.0 0.00 0.00 0.00 29 1011.3
20260904081556 67 360 0.0 2.0 0.00 0.00 0.00 30 1011.3
20260904081037 66 360 0.0 2.0 0.00 0.00 0.00 29 1011.2
20260904080537 66 360 0.0 0.0 0.00 0.00 0.00 29 1011.3
20260904080039 67 360 0.0 0.0 0.00 0.00 0.00 30 1011.3
20260904075540 67 360 0.0 0.0 0.00 0.00 0.00 29 1011.4
20260904075042 68 360 0.0 0.0 0.00 0.00 0.00 29 1011.4
20260904074543 69 360 0.0 0.0 0.00 0.00 0.00 28 1011.4
20260904074106 69 360 0.0 6.0 0.00 0.00 0.00 28 1011.3
20260904073025 68 360 1.0 4.0 0.00 0.00 0.00 28 1011.5
20260904072547 69 360 0.0 0.0 0.00 0.00 0.00 28 1011.6
20260904071547 71 360 0.0 9.0 0.00 0.00 0.00 27 1011.6
20260904071049 72 360 3.0 10.0 0.00 0.00 0.00 25 1011.5
20260904070026 73 360 4.0 11.0 0.00 0.00 0.00 25 1011.5
20260904065548 73 360 3.0 11.0 0.00 0.00 0.00 25 1011.5
20260904065050 73 360 2.0 10.0 0.00 0.00 0.00 25 1011.6
20260904064530 72 360 4.0 10.0 0.00 0.00 0.00 26 1011.6
20260904064113 71 360 2.0 7.0 0.00 0.00 0.00 26 1011.6
20260904063532 70 360 3.0 10.0 0.00 0.00 0.00 27 1011.6
20260904063054 66 360 2.0 10.0 0.00 0.00 0.00 29 1011.7
20260904062554 64 360 7.0 10.0 0.00 0.00 0.00 29 1011.7
20260904061535 65 360 4.0 6.0 0.00 0.00 0.00 28 1011.7
20260904061036 66 360 4.0 6.0 0.00 0.00 0.00 29 1011.7
20260904060035 65 360 6.0 10.0 0.00 0.00 0.00 29 1011.6
20260904055536 65 360 0.0 10.0 0.00 0.00 0.00 29 1011.6
20260904055038 65 360 8.0 10.0 0.00 0.00 0.00 30 1011.5
20260904054600 65 360 2.0 3.0 0.00 0.00 0.00 29 1011.3
20260904054121 65 360 0.0 3.0 0.00 0.00 0.00 29 1011.4
20260904053539 65 360 0.0 2.0 0.00 0.00 0.00 30 1011.5
20260904052541 65 360 0.0 3.0 0.00 0.00 0.00 29 1011.5
20260904052042 65 360 0.0 3.0 0.00 0.00 0.00 29 1011.4
20260904051624 65 360 0.0 7.0 0.00 0.00 0.00 29 1011.4
20260904051043 64 360 0.0 5.0 0.00 0.00 0.00 28 1011.4
20260904050542 64 360 3.0 5.0 0.00 0.00 0.00 29 1011.4
20260904050024 63 360 1.0 3.0 0.00 0.00 0.00 29 1011.4
20260904045626 63 360 2.0 4.0 0.00 0.00 0.00 29 1011.4
20260904045025 63 360 3.0 4.0 0.00 0.00 0.00 29 1011.4
20260904044526 63 360 0.0 10.0 0.00 0.00 0.00 29 1011.5
20260904044027 64 360 3.0 10.0 0.00 0.00 0.00 29 1011.6
20260904043609 65 360 0.0 4.0 0.00 0.00 0.00 28 1011.5
20260904043109 65 360 2.0 4.0 0.00 0.00 0.00 28 1011.5
20260904042527 66 360 0.0 0.0 0.00 0.00 0.00 28 1011.4
20260904042028 66 360 0.0 2.0 0.00 0.00 0.00 28 1011.4
20260904041529 68 360 0.0 2.0 0.00 0.00 0.00 27 1011.4
20260904041031 70 360 0.0 5.0 0.00 0.00 0.00 26 1011.3
20260904040535 71 360 0.0 5.0 0.00 0.00 0.00 26 1011.2
20260904040037 71 360 0.0 4.0 0.00 0.00 0.00 27 1011.2
20260904035537 72 360 0.0 0.0 0.00 0.00 0.00 26 1011.2
20260904035119 72 360 0.0 3.0 0.00 0.00 0.00 25 1011.1
20260904034559 73 360 0.0 3.0 0.00 0.00 0.00 25 1011.1
20260904034100 73 360 0.0 0.0 0.00 0.00 0.00 24 1011.1
20260904033539 74 360 0.0 6.0 0.00 0.00 0.00 24 1011.1
20260904032539 72 360 1.0 5.0 0.00 0.00 0.00 25 1011.0
20260904032059 72 360 1.0 3.0 0.00 0.00 0.00 24 1010.9
20260904031620 73 360 0.0 4.0 0.00 0.00 0.00 24 1010.8
20260904031058 74 360 2.0 4.0 0.00 0.00 0.00 22 1010.9
20260904030537 74 360 0.0 2.0 0.00 0.00 0.00 23 1010.8
20260904030038 75 360 0.0 3.0 0.00 0.00 0.00 22 1010.8
20260904025600 75 360 1.0 5.0 0.00 0.00 0.00 22 1010.8
20260904025040 76 360 2.0 8.0 0.00 0.00 0.00 22 1010.8
20260904024621 76 360 2.0 8.0 0.00 0.00 0.00 22 1010.7
20260904024041 76 360 2.0 7.0 0.00 0.00 0.00 22 1010.6
20260904023542 77 360 3.0 7.0 0.00 0.00 0.00 21 1010.6
20260904023043 77 360 0.0 7.0 0.00 0.00 0.00 22 1010.5
20260904022625 78 360 4.0 7.0 0.00 0.00 0.00 21 1010.4
20260904022104 78 360 1.0 7.0 0.00 0.00 0.00 21 1010.4
20260904021543 79 360 1.0 11.0 0.00 0.00 0.00 21 1010.4
20260904021025 79 360 4.0 11.0 0.00 0.00 0.00 21 1010.3
20260904020626 79 360 4.0 10.0 0.00 0.00 0.00 21 1010.3
20260904020046 79 360 4.0 9.0 0.00 0.00 0.00 21 1010.2
20260904015607 79 360 1.0 9.0 0.00 0.00 0.00 22 1010.2
20260904015046 79 360 0.0 6.0 0.00 0.00 0.00 22 1010.1
20260904014526 80 360 2.0 5.0 0.00 0.00 0.00 21 1010.1
20260904014049 81 360 2.0 7.0 0.00 0.00 0.00 21 1010.0
20260904013548 82 360 4.0 7.0 0.00 0.00 0.00 21 1010.0
20260904013029 83 360 5.0 7.0 0.00 0.00 0.00 20 1010.0
20260904012531 83 360 0.0 3.0 0.00 0.00 0.00 20 1009.9
20260904012031 83 360 0.0 4.0 0.00 0.00 0.00 20 1009.9
20260904011554 84 360 1.0 6.0 0.00 0.00 0.00 20 1009.9
20260904011035 84 360 0.0 6.0 0.00 0.00 0.00 20 1009.9
20260904010615 85 360 1.0 7.0 0.00 0.00 0.00 20 1009.8
20260904005615 85 360 0.0 9.0 0.00 0.00 0.00 20 1009.8
20260904005034 85 360 0.0 9.0 0.00 0.00 0.00 20 1009.9
20260904004536 85 360 0.0 6.0 0.00 0.00 0.00 20 1009.9
20260904004038 85 360 1.0 11.0 0.00 0.00 0.00 22 1009.8
20260904003538 85 360 1.0 11.0 0.00 0.00 0.00 21 1009.8
20260904003038 85 360 0.0 11.0 0.00 0.00 0.00 21 1009.7
20260904002540 85 360 2.0 11.0 0.00 0.00 0.00 21 1009.8
20260904002025 85 360 2.0 9.0 0.00 0.00 0.00 21 1009.7
20260904001026 85 360 0.0 9.0 0.00 0.00 0.00 21 1009.8
20260904000526 85 360 2.0 11.0 0.00 0.00 0.00 20 1009.8
20260904000026 85 360 4.0 11.0 0.00 0.00 0.00 21 1009.8
20260903235548 85 360 3.0 13.0 0.00 0.00 0.00 20 1009.8
20260903235028 85 360 4.0 13.0 0.00 0.00 0.00 20 1009.8
20260903234550 86 360 0.0 0.0 0.00 0.00 0.00 20 1009.8
20260903234031 86 360 0.0 0.0 0.00 0.00 0.00 20 1009.7
20260903233612 86 360 0.0 9.0 0.00 0.00 0.00 20 1009.9
20260903233031 86 360 0.0 9.0 0.00 0.00 0.00 20 1010.0
20260903232531 85 360 0.0 11.0 0.00 0.00 0.00 20 1010.0
20260903232032 85 360 2.0 11.0 0.00 0.00 0.00 20 1010.0
20260903231533 85 360 1.0 10.0 0.00 0.00 0.00 20 1010.0
20260903231036 86 360 5.0 10.0 0.00 0.00 0.00 19 1010.0
20260903230537 86 360 1.0 11.0 0.00 0.00 0.00 20 1010.0
20260903230039 86 360 2.0 22.0 0.00 0.00 0.00 19 1010.1
20260903225621 86 360 12.0 22.0 0.00 0.00 0.00 20 1010.0
20260903225120 86 360 7.0 28.0 0.00 0.00 0.00 20 1010.2
20260903224620 86 360 6.0 28.0 0.00 0.00 0.00 20 1010.3
20260903224040 86 360 10.0 14.0 0.00 0.00 0.00 20 1010.3
20260903223541 85 360 2.0 13.0 0.00 0.00 0.00 20 1010.4
20260903223102 85 360 3.0 13.0 0.00 0.00 0.00 20 1010.5
20260903222602 84 360 5.0 22.0 0.00 0.00 0.00 21 1010.5
20260903222104 84 360 5.0 22.0 0.00 0.00 0.00 20 1010.6
20260903221524 85 360 5.0 15.0 0.00 0.00 0.00 21 1010.6
20260903221027 85 360 1.0 9.0 0.00 0.00 0.00 20 1010.7
20260903220532 85 360 5.0 10.0 0.00 0.00 0.00 21 1010.6
20260903220051 85 360 2.0 11.0 0.00 0.00 0.00 21 1010.7
20260903215608 85 360 3.0 11.0 0.00 0.00 0.00 20 1010.8
20260903215032 84 360 0.0 5.0 0.00 0.00 0.00 20 1010.8
20260903214610 84 360 0.0 17.0 0.00 0.00 0.00 21 1011.0
20260903214033 84 360 5.0 21.0 0.00 0.00 0.00 21 1011.0